International Skating Union - Official Site

ISU World Cup Harbin
November 11-13, 2016

Draw | Lap Times | Index | World Cup

Referee: Erik  ØSMUNDSET  (NOR)
Starter: Chen  SONG  (CHN)
StartTime: EndTime: Air Temp: Ice Temp: Humidity:
12:30 12.7℃ -6.5℃ 44.0%
Result 5000m Men Division B
Rankings as of Nov 13 2016 1:28PM
Rank: No.: Name: Nation: Time: Behind: Points:
1 131 Nils  van der Poel SWE SWE 6:28.32200m - 19.52 - (19.5)
600m - 49.63 - (30.1)
1000m - 1:20.14 - (30.5)
1400m - 1:50.90 - (30.7)
1800m - 2:21.59 - (30.6)
2200m - 2:52.22 - (30.6)
2600m - 3:22.89 - (30.6)
3000m - 3:53.59 - (30.7)
3400m - 4:24.26 - (30.6)
3800m - 4:55.27 - (31.0)
4200m - 5:26.30 - (31.0)
4600m - 5:57.40 - (31.0)
5000m - 6:28.32 - (30.9)
32
2 61 Nicola  Tumolero ITA ITA 6:32.12200m - 19.51 - (19.5)
600m - 49.84 - (30.3)
1000m - 1:20.99 - (31.1)
1400m - 1:52.24 - (31.2)
1800m - 2:23.03 - (30.7)
2200m - 2:54.03 - (31.0)
2600m - 3:24.86 - (30.8)
3000m - 3:55.94 - (31.0)
3400m - 4:26.93 - (30.9)
3800m - 4:57.92 - (30.9)
4200m - 5:29.22 - (31.3)
4600m - 6:00.43 - (31.2)
5000m - 6:32.12 - (31.6)
3.80 27
3 56 Davide  Ghiotto ITA ITA 6:34.62200m - 19.53 - (19.5)
600m - 49.45 - (29.9)
1000m - 1:20.21 - (30.7)
1400m - 1:50.85 - (30.6)
1800m - 2:21.69 - (30.8)
2200m - 2:52.32 - (30.6)
2600m - 3:23.08 - (30.7)
3000m - 3:54.05 - (30.9)
3400m - 4:25.31 - (31.2)
3800m - 4:56.96 - (31.6)
4200m - 5:29.08 - (32.1)
4600m - 6:01.67 - (32.5)
5000m - 6:34.62 - (32.9)
6.30 23
4 72 Shane  Williamson JPN JPN 6:34.68200m - 18.46 - (18.4)
600m - 49.01 - (30.5)
1000m - 1:19.70 - (30.6)
1400m - 1:50.91 - (31.2)
1800m - 2:22.17 - (31.2)
2200m - 2:53.78 - (31.6)
2600m - 3:25.14 - (31.3)
3000m - 3:56.77 - (31.6)
3400m - 4:28.54 - (31.7)
3800m - 5:00.29 - (31.7)
4200m - 5:31.79 - (31.5)
4600m - 6:03.16 - (31.3)
5000m - 6:34.68 - (31.5)
6.36 19
5 4 Linus  Heidegger AUT AUT 6:35.79200m - 19.58 - (19.5)
600m - 50.95 - (31.3)
1000m - 1:22.96 - (32.0)
1400m - 1:54.48 - (31.5)
1800m - 2:25.69 - (31.2)
2200m - 2:57.00 - (31.3)
2600m - 3:28.04 - (31.0)
3000m - 3:58.85 - (30.8)
3400m - 4:29.87 - (31.0)
3800m - 5:01.07 - (31.1)
4200m - 5:32.33 - (31.2)
4600m - 6:03.72 - (31.3)
5000m - 6:35.79 - (32.0)
7.47 15
6 71 Ryosuke  Tsuchiya JPN JPN 6:36.09200m - 19.12 - (19.1)
600m - 49.38 - (30.2)
1000m - 1:20.83 - (31.4)
1400m - 1:52.30 - (31.4)
1800m - 2:23.94 - (31.6)
2200m - 2:55.29 - (31.3)
2600m - 3:26.80 - (31.5)
3000m - 3:58.13 - (31.3)
3400m - 4:29.46 - (31.3)
3800m - 5:00.74 - (31.2)
4200m - 5:32.18 - (31.4)
4600m - 6:03.88 - (31.6)
5000m - 6:36.09 - (32.2)
7.77 11
7 58 Michele  Malfatti ITA ITA 6:36.12200m - 19.36 - (19.3)
600m - 49.56 - (30.2)
1000m - 1:20.45 - (30.8)
1400m - 1:51.08 - (30.6)
1800m - 2:22.03 - (30.9)
2200m - 2:52.93 - (30.9)
2600m - 3:24.11 - (31.1)
3000m - 3:55.31 - (31.1)
3400m - 4:26.92 - (31.6)
3800m - 4:58.57 - (31.6)
4200m - 5:30.59 - (32.0)
4600m - 6:03.11 - (32.5)
5000m - 6:36.12 - (33.0)
7.80 9
8 115 Jan  Szymanski POL POL 6:37.35200m - 19.22 - (19.2)
600m - 49.29 - (30.0)
1000m - 1:20.18 - (30.8)
1400m - 1:51.00 - (30.8)
1800m - 2:22.12 - (31.1)
2200m - 2:52.95 - (30.8)
2600m - 3:24.24 - (31.2)
3000m - 3:55.74 - (31.5)
3400m - 4:28.08 - (32.3)
3800m - 5:00.11 - (32.0)
4200m - 5:32.62 - (32.5)
4600m - 6:04.99 - (32.3)
5000m - 6:37.35 - (32.3)
9.03 7
9 85 Seung-Hoon  Lee KOR KOR 6:38.38200m - 19.56 - (19.5)
600m - 50.44 - (30.8)
1000m - 1:21.25 - (30.8)
1400m - 1:52.58 - (31.3)
1800m - 2:23.73 - (31.1)
2200m - 2:55.25 - (31.5)
2600m - 3:26.54 - (31.2)
3000m - 3:58.23 - (31.6)
3400m - 4:29.96 - (31.7)
3800m - 5:01.79 - (31.8)
4200m - 5:33.81 - (32.0)
4600m - 6:06.07 - (32.2)
5000m - 6:38.38 - (32.3)
10.06 6
10 66 Shota  Nakamura JPN JPN 6:38.65200m - 18.81 - (18.8)
600m - 49.40 - (30.5)
1000m - 1:21.09 - (31.6)
1400m - 1:52.88 - (31.7)
1800m - 2:24.57 - (31.6)
2200m - 2:55.84 - (31.2)
2600m - 3:27.41 - (31.5)
3000m - 3:58.91 - (31.5)
3400m - 4:30.68 - (31.7)
3800m - 5:02.58 - (31.8)
4200m - 5:34.58 - (32.0)
4600m - 6:06.50 - (31.9)
5000m - 6:38.65 - (32.1)
10.33 5
11 108 Reyon  Kay NZL NZL 6:38.93200m - 20.15 - (20.1)
600m - 51.21 - (31.0)
1000m - 1:23.09 - (31.8)
1400m - 1:54.93 - (31.8)
1800m - 2:26.72 - (31.7)
2200m - 2:58.38 - (31.6)
2600m - 3:29.60 - (31.2)
3000m - 4:01.10 - (31.5)
3400m - 4:32.30 - (31.2)
3800m - 5:03.60 - (31.3)
4200m - 5:35.23 - (31.6)
4600m - 6:07.31 - (32.0)
5000m - 6:38.93 - (31.6)
10.61 4
12 41 Viktor-Hald  Thorup DEN DEN 6:40.35200m - 20.35 - (20.3)
600m - 50.65 - (30.2)
1000m - 1:21.23 - (30.5)
1400m - 1:52.04 - (30.8)
1800m - 2:22.76 - (30.7)
2200m - 2:53.48 - (30.7)
2600m - 3:24.37 - (30.8)
3000m - 3:55.58 - (31.2)
3400m - 4:27.13 - (31.5)
3800m - 4:59.86 - (32.7)
4200m - 5:33.39 - (33.5)
4600m - 6:07.21 - (33.8)
5000m - 6:40.35 - (33.1)
12.03 3
13 6 Vitaly  Mikhailov BLR BLR 6:41.09200m - 19.85 - (19.8)
600m - 51.13 - (31.2)
1000m - 1:22.35 - (31.2)
1400m - 1:54.21 - (31.8)
1800m - 2:25.68 - (31.4)
2200m - 2:56.94 - (31.2)
2600m - 3:28.16 - (31.2)
3000m - 3:59.60 - (31.4)
3400m - 4:31.43 - (31.8)
3800m - 5:03.75 - (32.3)
4200m - 5:35.88 - (32.1)
4600m - 6:08.47 - (32.5)
5000m - 6:41.09 - (32.6)
12.77 2
14 104 Simen Spieler  Nilsen NOR NOR 6:41.37200m - 19.10 - (19.1)
600m - 50.07 - (30.9)
1000m - 1:21.45 - (31.3)
1400m - 1:52.78 - (31.3)
1800m - 2:23.78 - (31.0)
2200m - 2:55.27 - (31.4)
2600m - 3:26.78 - (31.5)
3000m - 3:58.81 - (32.0)
3400m - 4:30.56 - (31.7)
3800m - 5:02.36 - (31.8)
4200m - 5:34.95 - (32.5)
4600m - 6:08.00 - (33.0)
5000m - 6:41.37 - (33.3)
13.05 1
15 116 Adrian  Wielgat POL POL 6:41.52200m - 19.51 - (19.5)
600m - 49.56 - (30.0)
1000m - 1:20.04 - (30.4)
1400m - 1:51.14 - (31.0)
1800m - 2:22.23 - (31.0)
2200m - 2:53.65 - (31.4)
2600m - 3:24.87 - (31.2)
3000m - 3:56.63 - (31.7)
3400m - 4:28.72 - (32.0)
3800m - 5:01.01 - (32.2)
4200m - 5:33.74 - (32.7)
4600m - 6:07.43 - (33.6)
5000m - 6:41.52 - (34.0)
13.20 0
16 118 Sergey  Gryaztsov RUS RUS 6:44.14200m - 19.10 - (19.1)
600m - 49.58 - (30.4)
1000m - 1:21.00 - (31.4)
1400m - 1:52.87 - (31.8)
1800m - 2:24.17 - (31.2)
2200m - 2:55.71 - (31.5)
2600m - 3:27.40 - (31.6)
3000m - 3:59.45 - (32.0)
3400m - 4:31.64 - (32.1)
3800m - 5:04.29 - (32.6)
4200m - 5:37.28 - (32.9)
4600m - 6:10.63 - (33.3)
5000m - 6:44.14 - (33.5)
15.82 0
17 129 Livio  Wenger SUI SUI 6:47.05200m - 19.84 - (19.8)
600m - 52.00 - (32.1)
1000m - 1:24.85 - (32.8)
1400m - 1:57.88 - (33.0)
1800m - 2:30.12 - (32.2)
2200m - 3:01.97 - (31.8)
2600m - 3:33.77 - (31.8)
3000m - 4:05.49 - (31.7)
3400m - 4:37.02 - (31.5)
3800m - 5:08.47 - (31.4)
4200m - 5:40.56 - (32.0)
4600m - 6:13.00 - (32.4)
5000m - 6:47.05 - (34.0)
18.73 0
18 125 Sergey  Trofimov RUS RUS 6:48.43200m - 19.23 - (19.2)
600m - 49.48 - (30.2)
1000m - 1:20.32 - (30.8)
1400m - 1:51.40 - (31.0)
1800m - 2:22.95 - (31.5)
2200m - 2:54.92 - (31.9)
2600m - 3:27.25 - (32.3)
3000m - 3:59.90 - (32.6)
3400m - 4:32.97 - (33.0)
3800m - 5:06.33 - (33.3)
4200m - 5:40.04 - (33.7)
4600m - 6:14.21 - (34.1)
5000m - 6:48.43 - (34.2)
20.11 0
19 83 Min Seok  Kim KOR KOR 6:48.80200m - 19.53 - (19.5)
600m - 49.87 - (30.3)
1000m - 1:21.16 - (31.2)
1400m - 1:53.13 - (31.9)
1800m - 2:24.48 - (31.3)
2200m - 2:56.08 - (31.6)
2600m - 3:27.41 - (31.3)
3000m - 3:59.47 - (32.0)
3400m - 4:31.98 - (32.5)
3800m - 5:05.80 - (33.8)
4200m - 5:40.02 - (34.2)
4600m - 6:14.69 - (34.6)
5000m - 6:48.80 - (34.1)
20.48 0
20 112 Roland  Cieslak POL POL 6:51.84200m - 19.99 - (19.9)
600m - 51.27 - (31.2)
1000m - 1:23.30 - (32.0)
1400m - 1:55.14 - (31.8)
1800m - 2:27.49 - (32.3)
2200m - 2:59.88 - (32.3)
2600m - 3:32.50 - (32.6)
3000m - 4:05.35 - (32.8)
3400m - 4:38.38 - (33.0)
3800m - 5:11.68 - (33.3)
4200m - 5:45.77 - (34.0)
4600m - 6:18.84 - (33.0)
5000m - 6:51.84 - (33.0)
23.52 0
21 107 Shane  Dobbin NZL NZL 6:52.78200m - 20.03 - (20.0)
600m - 51.61 - (31.5)
1000m - 1:24.23 - (32.6)
1400m - 1:56.99 - (32.7)
1800m - 2:29.71 - (32.7)
2200m - 3:02.56 - (32.8)
2600m - 3:35.40 - (32.8)
3000m - 4:08.12 - (32.7)
3400m - 4:40.87 - (32.7)
3800m - 5:13.69 - (32.8)
4200m - 5:46.36 - (32.6)
4600m - 6:19.44 - (33.0)
5000m - 6:52.78 - (33.3)
24.46 0
22 74 Dmitry  Babenko KAZ KAZ 6:52.97200m - 19.60 - (19.6)
600m - 51.61 - (32.0)
1000m - 1:24.25 - (32.6)
1400m - 1:56.69 - (32.4)
1800m - 2:29.27 - (32.5)
2200m - 3:01.78 - (32.5)
2600m - 3:34.71 - (32.9)
3000m - 4:07.69 - (32.9)
3400m - 4:40.64 - (32.9)
3800m - 5:13.61 - (32.9)
4200m - 5:46.85 - (33.2)
4600m - 6:19.89 - (33.0)
5000m - 6:52.97 - (33.0)
24.65 0
23 134 KC  Boutiette USA USA 6:53.40200m - 19.54 - (19.5)
600m - 50.53 - (30.9)
1000m - 1:22.30 - (31.7)
1400m - 1:54.50 - (32.2)
1800m - 2:26.87 - (32.3)
2200m - 2:59.57 - (32.6)
2600m - 3:32.62 - (33.0)
3000m - 4:05.80 - (33.1)
3400m - 4:39.08 - (33.2)
3800m - 5:12.42 - (33.3)
4200m - 5:45.86 - (33.4)
4600m - 6:19.52 - (33.6)
5000m - 6:53.40 - (33.8)
25.08 0
24 34 Jiafan  Zhu CHN CHN 6:53.95200m - 20.36 - (20.3)
600m - 51.54 - (31.1)
1000m - 1:23.70 - (32.1)
1400m - 1:55.64 - (31.9)
1800m - 2:27.75 - (32.1)
2200m - 3:00.14 - (32.3)
2600m - 3:32.78 - (32.6)
3000m - 4:05.68 - (32.9)
3400m - 4:38.84 - (33.1)
3800m - 5:12.33 - (33.4)
4200m - 5:46.21 - (33.8)
4600m - 6:20.26 - (34.0)
5000m - 6:53.94 - (33.6)
25.63 0
25 32 Bowen  Xuan CHN CHN 6:54.74200m - 19.70 - (19.6)
600m - 50.62 - (30.9)
1000m - 1:22.73 - (32.1)
1400m - 1:55.05 - (32.3)
1800m - 2:28.40 - (33.3)
2200m - 3:01.53 - (33.1)
2600m - 3:35.11 - (33.5)
3000m - 4:08.40 - (33.2)
3400m - 4:42.02 - (33.6)
3800m - 5:15.94 - (33.9)
4200m - 5:49.33 - (33.3)
4600m - 6:22.25 - (32.9)
5000m - 6:54.74 - (32.4)
26.42 0
26 29 Shiwei  Wang CHN CHN 6:56.57200m - 19.44 - (19.4)
600m - 51.34 - (31.9)
1000m - 1:23.40 - (32.0)
1400m - 1:56.12 - (32.7)
1800m - 2:28.94 - (32.8)
2200m - 3:02.02 - (33.0)
2600m - 3:35.10 - (33.0)
3000m - 4:08.59 - (33.4)
3400m - 4:42.16 - (33.5)
3800m - 5:16.09 - (33.9)
4200m - 5:50.19 - (34.1)
4600m - 6:23.19 - (33.0)
5000m - 6:56.57 - (33.3)
28.25 0
27 1 Joshua  Capponi AUS AUS 6:57.79200m - 19.67 - (19.6)
600m - 50.75 - (31.0)
1000m - 1:22.21 - (31.4)
1400m - 1:53.72 - (31.5)
1800m - 2:25.75 - (32.0)
2200m - 2:58.22 - (32.4)
2600m - 3:31.21 - (32.9)
3000m - 4:04.76 - (33.5)
3400m - 4:38.60 - (33.8)
3800m - 5:12.85 - (34.2)
4200m - 5:47.64 - (34.7)
4600m - 6:22.70 - (35.0)
5000m - 6:57.79 - (35.0)
29.47 0
28 27 Hongli  Wang CHN CHN 6:59.01200m - 19.57 - (19.5)
600m - 50.67 - (31.1)
1000m - 1:22.64 - (31.9)
1400m - 1:55.59 - (32.9)
1800m - 2:28.34 - (32.7)
2200m - 3:01.99 - (33.6)
2600m - 3:35.35 - (33.3)
3000m - 4:09.24 - (33.8)
3400m - 4:42.81 - (33.5)
3800m - 5:17.22 - (34.4)
4200m - 5:51.11 - (33.8)
4600m - 6:25.14 - (34.0)
5000m - 6:59.01 - (33.8)
30.69 0
29 39 Sebastian  Druszkiewicz CZE CZE DQ200m - 20.04 - (20.0)
600m - 51.35 - (31.3)
1000m - 1:22.79 - (31.4)
1400m - 1:54.90 - (32.1)
1800m - 2:26.90 - (32.0)
2200m - 2:59.12 - (32.2)
2600m - 3:31.71 - (32.5)
3000m - 4:04.57 - (32.8)
3400m - 4:37.64 - (33.0)
3800m - 5:10.93 - (33.2)
4200m - 5:44.21 - (33.2)
4600m - 6:17.86 - (33.6)
5000m - 6:52.25 - (34.3)
0